GW6935 Weather Reports


time (UTC)temp
C
wind
direction
speed
KPH
gust
KPH
rain 1hr
cm
rain 24hr
cm
rain mn
cm
humidity
%
barometer
mb
20260903025535 25 309 0.0 0.0 0.00 0.00 0.00 84 1052.8
20260903025031 25 309 0.0 0.0 0.00 0.00 0.00 84 1052.8
20260903024531 25 309 0.0 0.0 0.00 0.00 0.00 84 1052.8
20260903024025 25 309 0.0 0.0 0.00 0.00 0.00 83 1052.9
20260903023521 25 309 0.0 0.0 0.00 0.00 0.00 82 1052.9
20260903023016 25 309 0.0 0.0 0.00 0.00 0.00 80 1053.0
20260903022515 25 309 0.0 0.0 0.00 0.00 0.00 82 1053.0
20260903022014 25 309 0.0 0.0 0.00 0.00 0.00 82 1052.9
20260903021509 25 309 0.0 0.0 0.00 0.00 0.00 84 1053.0
20260903021004 25 309 0.0 0.0 0.00 0.00 0.00 82 1052.9
20260903020500 25 309 0.0 0.0 0.00 0.00 0.00 81 1053.0
20260903015959 26 309 0.0 0.0 0.00 0.00 0.00 79 1053.0
20260903015455 26 309 0.0 0.0 0.00 0.00 0.00 79 1052.9
20260903014950 26 309 0.0 0.0 0.00 0.00 0.00 78 1052.9
20260903014449 26 309 0.0 0.0 0.00 0.00 0.00 76 1053.0
20260903013945 26 309 0.0 0.0 0.00 0.00 0.00 77 1052.8
20260903013444 26 309 0.0 0.0 0.00 0.00 0.00 76 1052.9
20260903012943 26 309 0.0 0.0 0.00 0.00 0.00 76 1053.1
20260903012443 26 309 0.0 0.0 0.00 0.00 0.00 75 1052.9
20260903011942 26 309 0.0 0.0 0.00 0.00 0.00 76 1052.6
20260903011437 26 309 0.0 0.0 0.00 0.00 0.00 76 1052.7
20260903010932 27 309 0.0 0.0 0.00 0.00 0.00 75 1052.6
20260903010427 27 309 0.0 0.0 0.00 0.00 0.00 73 1052.6
20260903005925 27 309 0.0 0.0 0.00 0.00 0.00 73 1052.6
20260903005421 27 309 0.0 0.0 0.00 0.00 0.00 75 1052.7
20260903004918 27 309 0.0 0.0 0.00 0.00 0.00 75 1052.7
20260903004418 27 309 0.0 0.0 0.00 0.00 0.00 75 1052.6
20260903003914 28 309 0.0 0.0 0.00 0.00 0.00 71 1052.6
20260903003413 28 309 0.0 0.0 0.00 0.00 0.00 69 1052.6
20260903002914 28 309 0.0 0.0 0.00 0.00 0.00 64 1052.6
20260903002409 29 309 0.0 0.0 0.00 0.00 0.00 62 1052.4
20260903001908 29 309 0.0 0.0 0.00 0.00 0.00 62 1052.6
20260903001403 30 309 0.0 0.0 0.00 0.00 0.00 61 1052.6
20260903000903 30 309 0.0 0.0 0.00 0.00 0.00 60 1052.6
20260903000358 30 309 1.6 1.6 0.00 0.00 0.00 61 1052.6
20260902235856 30 309 1.6 1.6 0.00 0.00 0.00 61 1052.4
20260902235352 30 309 1.6 1.6 0.00 0.00 0.00 63 1052.8
20260902234852 30 309 0.0 0.0 0.00 0.00 0.00 58 1052.6
20260902234351 30 309 0.0 0.0 0.00 0.00 0.00 58 1052.6
20260902233850 31 309 0.0 0.0 0.00 0.00 0.00 57 1052.6
20260902233345 31 309 0.0 0.0 0.00 0.00 0.00 57 1052.8
20260902232843 31 309 0.0 0.0 0.00 0.00 0.00 56 1052.4
20260902232338 31 309 0.0 0.0 0.00 0.00 0.00 58 1052.6
20260902231838 31 309 0.0 0.0 0.00 0.00 0.00 57 1052.8
20260902231333 31 309 0.0 0.0 0.00 0.00 0.00 58 1052.7
20260902230829 31 309 0.0 0.0 0.00 0.00 0.00 57 1052.6
20260902230328 31 309 0.0 0.0 0.00 0.00 0.00 56 1052.9
20260902225828 32 309 0.0 0.0 0.00 0.00 0.00 56 1052.7
20260902225323 32 309 0.0 0.0 0.00 0.00 0.00 55 1052.8
20260902224821 32 309 0.0 0.0 0.00 0.00 0.00 54 1052.5
20260902224316 32 309 0.0 0.0 0.00 0.00 0.00 53 1052.7
20260902223814 33 310 0.0 0.0 0.00 0.00 0.00 55 1052.7
20260902223314 33 309 0.0 0.0 0.00 0.00 0.00 54 1052.7
20260902222813 34 310 0.0 0.0 0.00 0.00 0.00 49 1052.5
20260902222312 34 310 0.0 0.0 0.00 0.00 0.00 50 1052.9
20260902221807 35 310 0.0 0.0 0.00 0.00 0.00 51 1052.8
20260902221306 34 309 0.0 0.0 0.00 0.00 0.00 50 1052.9
20260902220802 33 309 0.0 1.6 0.00 0.00 0.00 47 1052.7
20260902220301 33 309 0.0 0.0 0.00 0.00 0.00 54 1053.0
20260902215756 33 310 0.0 0.0 0.00 0.00 0.00 50 1052.7
20260902215252 34 310 0.0 0.0 0.00 0.00 0.00 53 1052.9
20260902214748 34 272 0.0 0.0 0.00 0.00 0.00 52 1052.9
20260902214246 34 273 1.6 3.2 0.00 0.00 0.00 47 1052.9
20260902213742 35 277 1.6 3.2 0.00 0.00 0.00 48 1053.1
20260902213242 36 254 0.0 1.6 0.00 0.00 0.00 46 1053.1
20260902212741 36 249 1.6 1.6 0.00 0.00 0.00 45 1053.2
20260902212238 36 306 0.0 1.6 0.00 0.00 0.00 44 1053.2
20260902211734 36 306 1.6 1.6 0.00 0.00 0.00 42 1053.2
20260902211230 36 244 1.6 3.2 0.00 0.00 0.00 42 1053.1
20260902210729 36 240 1.6 3.2 0.00 0.00 0.00 42 1053.1
20260902210225 36 262 3.2 3.2 0.00 0.00 0.00 44 1053.1
20260902205722 37 296 1.6 1.6 0.00 0.00 0.00 43 1053.0
20260902205218 37 283 0.0 1.6 0.00 0.00 0.00 45 1053.3
20260902204713 37 283 0.0 3.2 0.00 0.00 0.00 45 1053.2
20260902204208 36 261 0.0 1.6 0.00 0.00 0.00 45 1053.3
20260902203704 37 261 3.2 4.8 0.00 0.00 0.00 42 1053.2
20260902203204 36 268 0.0 3.2 0.00 0.00 0.00 45 1053.2
20260902202658 36 260 0.0 4.8 0.00 0.00 0.00 48 1053.1
20260902202155 36 204 0.0 1.6 0.00 0.00 0.00 46 1053.2
20260902201651 36 258 0.0 0.0 0.00 0.00 0.00 52 1053.4
20260902201150 36 339 0.0 1.6 0.00 0.00 0.00 50 1053.3
20260902200645 36 204 1.6 4.8 0.00 0.00 0.00 44 1053.5
20260902200141 36 265 1.6 3.2 0.00 0.00 0.00 49 1053.5
20260902195637 35 258 0.0 3.2 0.00 0.00 0.00 49 1053.4
20260902195136 35 261 0.0 1.6 0.00 0.00 0.00 49 1053.5
20260902194635 35 258 0.0 1.6 0.00 0.00 0.00 50 1053.6
20260902194130 36 256 1.6 3.2 0.00 0.00 0.00 48 1053.7
20260902193627 36 300 3.2 3.2 0.00 0.00 0.00 45 1053.7
20260902193127 35 320 0.0 1.6 0.00 0.00 0.00 48 1053.9
20260902192625 35 25 1.6 3.2 0.00 0.00 0.00 48 1054.1
20260902192124 36 359 4.8 9.7 0.00 0.00 0.00 42 1054.1
20260902191620 36 260 3.2 6.4 0.00 0.00 0.00 47 1054.0
20260902191119 36 320 3.2 4.8 0.00 0.00 0.00 47 1054.0
20260902190615 36 279 0.0 0.0 0.00 0.00 0.00 43 1054.0
20260902190110 36 91 1.6 3.2 0.00 0.00 0.00 44 1054.0
20260902185606 36 252 0.0 3.2 0.00 0.00 0.00 50 1054.2
20260902185102 35 14 0.0 0.0 0.00 0.00 0.00 51 1054.2
20260902184556 35 255 1.6 3.2 0.00 0.00 0.00 48 1054.3
20260902184052 36 311 4.8 6.4 0.00 0.00 0.00 45 1054.2
20260902183548 36 327 3.2 6.4 0.00 0.00 0.00 47 1054.0
20260902183044 35 253 1.6 3.2 0.00 0.00 0.00 46 1054.2
20260902182540 35 267 4.8 4.8 0.00 0.00 0.00 47 1054.1
20260902182037 35 104 3.2 3.2 0.00 0.00 0.00 51 1054.1
20260902181532 35 289 1.6 1.6 0.00 0.00 0.00 51 1054.3
20260902181026 35 291 4.8 9.7 0.00 0.00 0.00 47 1054.4
20260902180526 35 262 0.0 1.6 0.00 0.00 0.00 48 1054.4
20260902180023 35 256 3.2 3.2 0.00 0.00 0.00 45 1054.4
20260902175522 35 277 3.2 4.8 0.00 0.00 0.00 48 1054.5
20260902175018 35 281 3.2 4.8 0.00 0.00 0.00 54 1054.5
20260902174515 35 273 3.2 1.6 0.00 0.00 0.00 51 1054.6
20260902174010 35 275 1.6 1.6 0.00 0.00 0.00 53 1054.7
20260902173509 35 276 0.0 3.2 0.00 0.00 0.00 55 1054.7
20260902173004 35 334 3.2 3.2 0.00 0.00 0.00 53 1054.7
20260902172504 35 268 1.6 4.8 0.00 0.00 0.00 52 1055.1
20260902171959 35 283 1.6 4.8 0.00 0.00 0.00 53 1054.9
20260902171454 35 273 3.2 3.2 0.00 0.00 0.00 57 1054.9
20260902170950 35 261 3.2 4.8 0.00 0.00 0.00 53 1055.1
20260902170450 35 292 1.6 3.2 0.00 0.00 0.00 55 1055.2
20260902165946 35 266 0.0 1.6 0.00 0.00 0.00 55 1055.2
20260902165445 35 257 0.0 3.2 0.00 0.00 0.00 48 1055.3
20260902164940 35 241 1.6 3.2 0.00 0.00 0.00 47 1055.1
20260902164436 34 273 0.0 3.2 0.00 0.00 0.00 55 1055.4
20260902163935 34 267 1.6 1.6 0.00 0.00 0.00 52 1055.5
20260902163430 34 267 1.6 3.2 0.00 0.00 0.00 54 1055.4
20260902162928 34 261 1.6 3.2 0.00 0.00 0.00 56 1055.7
20260902162423 33 296 0.0 1.6 0.00 0.00 0.00 57 1055.7
20260902161923 33 5 0.0 3.2 0.00 0.00 0.00 57 1055.8
20260902161418 33 284 1.6 4.8 0.00 0.00 0.00 62 1055.6
20260902160914 33 101 1.6 1.6 0.00 0.00 0.00 57 1055.6
20260902160409 33 287 0.0 3.2 0.00 0.00 0.00 57 1055.5
20260902155907 33 1 0.0 6.4 0.00 0.00 0.00 57 1055.6
20260902155402 33 274 0.0 1.6 0.00 0.00 0.00 57 1055.5
20260902154856 32 328 1.6 1.6 0.00 0.00 0.00 67 1055.7
20260902154352 32 30 3.2 3.2 0.00 0.00 0.00 59 1055.7
20260902153851 32 258 0.0 1.6 0.00 0.00 0.00 63 1055.7
20260902153350 32 331 1.6 3.2 0.00 0.00 0.00 61 1055.8
20260902152846 32 272 3.2 3.2 0.00 0.00 0.00 60 1055.8
20260902152342 32 285 1.6 3.2 0.00 0.00 0.00 64 1055.6
20260902151837 32 354 0.0 1.6 0.00 0.00 0.00 62 1055.7
20260902151332 31 261 0.0 1.6 0.00 0.00 0.00 68 1055.8
20260902150827 31 337 0.0 3.2 0.00 0.00 0.00 69 1055.6
20260902150323 31 64 3.2 3.2 0.00 0.00 0.00 64 1055.4
20260902145823 31 324 1.6 3.2 0.00 0.00 0.00 71 1055.6
20260902145318 30 236 0.0 1.6 0.00 0.00 0.00 69 1055.5
20260902144814 30 231 0.0 0.0 0.00 0.00 0.00 69 1055.5
20260902144309 30 336 0.0 1.6 0.00 0.00 0.00 73 1055.6
20260902143804 29 292 1.6 1.6 0.00 0.00 0.00 72 1055.7
20260902143259 29 290 1.6 1.6 0.00 0.00 0.00 72 1055.8
20260902142756 28 278 3.2 3.2 0.00 0.00 0.00 74 1055.8
20260902142250 28 274 0.0 1.6 0.00 0.00 0.00 72 1055.6
20260902141750 28 274 1.6 1.6 0.00 0.00 0.00 73 1055.6
20260902141246 28 275 0.0 0.0 0.00 0.00 0.00 78 1055.5
20260902140740 28 274 0.0 1.6 0.00 0.00 0.00 76 1055.5
20260902140235 28 261 0.0 0.0 0.00 0.00 0.00 76 1055.7
20260902135734 27 261 0.0 0.0 0.00 0.00 0.00 78 1055.5
20260902135230 27 261 0.0 0.0 0.00 0.00 0.00 80 1055.8
20260902134730 27 261 0.0 0.0 0.00 0.00 0.00 79 1055.8
20260902134225 26 261 0.0 0.0 0.00 0.00 0.00 80 1055.7
20260902133721 26 261 0.0 0.0 0.00 0.00 0.00 83 1055.7
20260902133219 26 261 0.0 0.0 0.00 0.00 0.00 82 1055.6
20260902132715 26 261 0.0 0.0 0.00 0.00 0.00 82 1055.6
20260902132210 26 261 0.0 0.0 0.00 0.00 0.00 84 1055.5
20260902131706 25 261 0.0 0.0 0.00 0.00 0.00 85 1055.7
20260902131202 25 261 0.0 0.0 0.00 0.00 0.00 85 1055.6
20260902130657 25 261 0.0 0.0 0.00 0.00 0.00 86 1055.6
20260902130153 25 261 0.0 0.0 0.00 0.00 0.00 86 1055.6
20260902125648 24 261 0.0 0.0 0.00 0.00 0.00 87 1055.6
20260902125144 24 261 0.0 0.0 0.00 0.00 0.00 88 1055.4
20260902124640 23 261 0.0 0.0 0.00 0.00 0.00 90 1055.3
20260902124140 23 261 0.0 0.0 0.00 0.00 0.00 93 1055.4
20260902123636 23 261 0.0 0.0 0.00 0.00 0.00 94 1055.3
20260902123136 22 261 0.0 0.0 0.00 0.00 0.00 94 1055.3
20260902122631 22 261 0.0 0.0 0.00 0.00 0.00 94 1055.4
20260902122126 22 261 0.0 0.0 0.00 0.00 0.00 94 1055.4
20260902121626 22 261 0.0 0.0 0.00 0.00 0.00 94 1055.5
20260902121121 22 261 0.0 0.0 0.00 0.00 0.00 94 1055.3
20260902120617 22 261 0.0 0.0 0.00 0.00 0.00 95 1055.2
20260902120114 22 261 0.0 0.0 0.00 0.00 0.00 94 1055.2
20260902115608 22 261 0.0 0.0 0.00 0.00 0.00 94 1055.1
20260902115104 21 261 0.0 0.0 0.00 0.00 0.00 95 1055.2
20260902114600 21 261 0.0 0.0 0.00 0.00 0.00 96 1054.9
20260902114059 21 261 0.0 0.0 0.00 0.00 0.00 97 1054.9
20260902113555 20 261 0.0 0.0 0.00 0.00 0.00 96 1054.7
20260902113050 20 261 0.0 0.0 0.00 0.00 0.00 96 1055.1
20260902112546 20 261 0.0 0.0 0.00 0.00 0.00 96 1054.8
20260902112043 20 261 0.0 0.0 0.00 0.00 0.00 96 1054.7
20260902111538 20 261 0.0 0.0 0.00 0.00 0.00 96 1054.7
20260902111034 20 261 0.0 0.0 0.00 0.00 0.00 96 1054.6
20260902110530 20 261 0.0 0.0 0.00 0.00 0.00 96 1054.7
20260902110025 20 261 0.0 0.0 0.00 0.00 0.00 96 1054.5
20260902105526 21 261 0.0 0.0 0.00 0.00 0.00 96 1054.5
20260902105020 21 261 0.0 0.0 0.00 0.00 0.00 96 1054.6
20260902104516 20 261 0.0 0.0 0.00 0.00 0.00 96 1054.5
20260902104016 20 261 0.0 0.0 0.00 0.00 0.00 96 1054.2
20260902103511 21 261 0.0 0.0 0.00 0.00 0.00 96 1054.3
20260902103006 21 261 0.0 0.0 0.00 0.00 0.00 96 1054.5
20260902102503 21 261 0.0 0.0 0.00 0.00 0.00 96 1054.1
20260902101959 21 261 0.0 0.0 0.00 0.00 0.00 96 1054.0
20260902101454 21 261 0.0 0.0 0.00 0.00 0.00 96 1054.5
20260902100953 21 261 0.0 0.0 0.00 0.00 0.00 96 1054.3
20260902100448 21 261 0.0 0.0 0.00 0.00 0.00 95 1054.3
20260902095947 21 261 0.0 0.0 0.00 0.00 0.00 95 1054.2
20260902095442 21 261 0.0 0.0 0.00 0.00 0.00 95 1054.2
20260902094941 21 261 0.0 0.0 0.00 0.00 0.00 95 1054.3
20260902094437 21 261 0.0 0.0 0.00 0.00 0.00 95 1054.1
20260902093932 21 261 0.0 0.0 0.00 0.00 0.00 95 1054.0
20260902093427 21 261 0.0 0.0 0.00 0.00 0.00 96 1054.0
20260902092926 21 261 0.0 0.0 0.00 0.00 0.00 96 1054.0
20260902092422 21 261 0.0 0.0 0.00 0.00 0.00 95 1054.0
20260902091922 21 261 0.0 0.0 0.00 0.00 0.00 95 1054.0
20260902091417 21 261 0.0 0.0 0.00 0.00 0.00 95 1053.9
20260902090914 21 261 0.0 0.0 0.00 0.00 0.00 96 1054.0
20260902090414 21 261 0.0 0.0 0.00 0.00 0.00 96 1054.0
20260902085912 21 261 0.0 0.0 0.00 0.00 0.00 96 1054.0
20260902085409 21 261 0.0 0.0 0.00 0.00 0.00 96 1054.1
20260902084909 21 261 0.0 0.0 0.00 0.00 0.00 96 1054.0
20260902084405 21 261 0.0 0.0 0.00 0.00 0.00 96 1053.9
20260902083901 21 261 0.0 0.0 0.00 0.00 0.00 96 1054.0
20260902083401 21 261 0.0 0.0 0.00 0.00 0.00 96 1054.0
20260902082855 21 261 0.0 0.0 0.00 0.00 0.00 96 1053.9
20260902082351 21 261 0.0 0.0 0.00 0.00 0.00 96 1053.8
20260902081848 21 261 0.0 0.0 0.00 0.00 0.00 96 1053.9
20260902081343 21 261 0.0 0.0 0.00 0.00 0.00 96 1053.8
20260902080838 21 261 0.0 0.0 0.00 0.00 0.00 96 1053.8
20260902080335 21 261 0.0 0.0 0.00 0.00 0.00 96 1053.8
20260902075834 21 261 0.0 0.0 0.00 0.00 0.00 96 1053.8
20260902075330 21 261 0.0 0.0 0.00 0.00 0.00 96 1053.9
20260902074826 21 261 0.0 0.0 0.00 0.00 0.00 96 1053.6
20260902074321 21 261 0.0 0.0 0.00 0.00 0.00 96 1053.6
20260902073815 21 261 0.0 0.0 0.00 0.00 0.00 96 1053.7
20260902073312 21 261 0.0 0.0 0.00 0.00 0.00 95 1053.5
20260902072808 21 261 0.0 0.0 0.00 0.00 0.00 95 1053.6
20260902072308 21 261 0.0 0.0 0.00 0.00 0.00 95 1053.6
20260902071759 21 261 0.0 0.0 0.00 0.00 0.00 95 1053.5
20260902071254 21 261 0.0 0.0 0.00 0.00 0.00 95 1053.7
20260902070751 21 261 0.0 0.0 0.00 0.00 0.00 95 1053.5
20260902070250 21 261 0.0 0.0 0.00 0.00 0.00 95 1053.7
20260902065749 21 261 0.0 0.0 0.00 0.00 0.00 95 1053.4
20260902065244 21 261 0.0 0.0 0.00 0.00 0.00 95 1053.7
20260902064740 21 261 0.0 0.0 0.00 0.00 0.00 95 1053.8
20260902064236 22 261 0.0 0.0 0.00 0.00 0.00 95 1053.7
20260902063731 22 261 0.0 0.0 0.00 0.00 0.00 95 1053.6
20260902063226 22 261 0.0 0.0 0.00 0.00 0.00 95 1053.8
20260902062725 22 261 0.0 0.0 0.00 0.00 0.00 95 1054.0
20260902062220 22 261 0.0 0.0 0.00 0.00 0.00 95 1053.5
20260902061719 21 261 0.0 0.0 0.00 0.00 0.00 94 1053.8
20260902061215 22 261 0.0 0.0 0.00 0.00 0.00 94 1053.7
20260902060711 22 261 0.0 0.0 0.00 0.00 0.00 94 1053.9
20260902060207 22 261 0.0 0.0 0.00 0.00 0.00 94 1054.1
20260902055703 22 261 0.0 0.0 0.00 0.00 0.00 94 1053.8
20260902055158 22 261 0.0 0.0 0.00 0.00 0.00 93 1053.9
20260902054653 22 261 0.0 0.0 0.00 0.00 0.00 93 1054.0
20260902054149 22 261 0.0 0.0 0.00 0.00 0.00 93 1053.6
20260902053645 22 261 0.0 0.0 0.00 0.00 0.00 93 1053.8
20260902053144 22 261 0.0 0.0 0.00 0.00 0.00 92 1053.8
20260902052643 22 261 0.0 0.0 0.00 0.00 0.00 92 1053.8
20260902052139 22 261 0.0 0.0 0.00 0.00 0.00 92 1053.8
20260902051638 22 261 0.0 0.0 0.00 0.00 0.00 92 1053.9
20260902051133 22 261 0.0 0.0 0.00 0.00 0.00 92 1053.7
20260902050633 22 261 0.0 0.0 0.00 0.00 0.00 92 1053.7
20260902050129 22 261 0.0 0.0 0.00 0.00 0.00 92 1053.7
20260902045624 22 261 0.0 0.0 0.00 0.00 0.00 92 1053.8
20260902045120 22 261 0.0 0.0 0.00 0.00 0.00 92 1053.8
20260902044620 22 261 0.0 0.0 0.00 0.00 0.00 92 1054.0
20260902044116 22 261 0.0 0.0 0.00 0.00 0.00 92 1053.8
20260902043611 22 261 0.0 0.0 0.00 0.00 0.00 92 1053.7
20260902043106 22 261 0.0 0.0 0.00 0.00 0.00 92 1053.7
20260902042605 22 261 0.0 0.0 0.00 0.00 0.00 92 1053.6
20260902042101 22 261 0.0 0.0 0.00 0.00 0.00 91 1053.6
20260902041601 23 261 0.0 0.0 0.00 0.00 0.00 90 1053.7
20260902041056 23 261 0.0 0.0 0.00 0.00 0.00 90 1053.7
20260902040555 23 262 0.0 0.0 0.00 0.00 0.00 89 1053.7
20260902040050 23 261 0.0 0.0 0.00 0.00 0.00 89 1053.7
20260902035549 23 261 0.0 0.0 0.00 0.00 0.00 89 1053.7
20260902035044 23 261 0.0 0.0 0.00 0.00 0.00 90 1053.6
20260902034543 23 261 0.0 0.0 0.00 0.00 0.00 91 1053.5
20260902034043 23 261 0.0 0.0 0.00 0.00 0.00 92 1053.7
20260902033542 23 261 0.0 0.0 0.00 0.00 0.00 92 1053.8
20260902033037 23 261 0.0 0.0 0.00 0.00 0.00 91 1053.9
20260902032536 23 261 0.0 0.0 0.00 0.00 0.00 91 1053.7
20260902032031 23 261 0.0 0.0 0.00 0.00 0.00 90 1053.6
20260902031526 23 262 0.0 0.0 0.00 0.00 0.00 90 1054.0
20260902031022 23 261 0.0 0.0 0.00 0.00 0.00 89 1054.0
20260902030523 23 261 0.0 0.0 0.00 0.00 0.00 89 1053.8
20260902030023 23 261 0.0 0.0 0.00 0.00 0.00 89 1053.8